Ogallala, NE

5:04 AM MDT on March 24, 2017 (GMT -0600)
Searle

Weather History for KOGA - February, 2013

Change the Weather History Date:

Thursday, February 7, 2013

  Actual Average Record
Temperature  
Mean Temperature 36 °F -  
Max Temperature 51 °F 37 °F 66 °F (1999)
Min Temperature 21 °F 12 °F -11 °F (1971)
Degree Days  
Heating Degree Days 29    
Moisture  
Dew Point 22 °F    
Average Humidity 59    
Maximum Humidity 94    
Minimum Humidity 21    
Precipitation  
Precipitation 0.01 in - - ()
Sea Level Pressure  
Sea Level Pressure 30.10 in    
Wind  
Wind Speed 10 mph (NW)    
Max Wind Speed 20 mph    
Max Gust Speed 25 mph    
Visibility 10 miles    
Events      
Averages and records for this station are not official NWS values.
T = Trace of Precipitation, MM = Missing Value Source: NWS Daily Summary

Daily Weather History Graph

Daily Weather History Graph

Search for Another Location

Airport or City:

Trip Planner

Search our weather history database for the weather conditions in past years. The results will help you decide how hot, cold, wet, or windy it might be!

Date:

Astronomy

Feb. 07, 2013 Rise Set
Actual Time 6:51 AM MST 5:11 PM MST
Civil Twilight 6:22 AM MST 5:40 PM MST
Nautical Twilight 5:49 AM MST 6:13 PM MST
Astronomical Twilight 5:17 AM MST 6:45 PM MST
Moon 4:33 AM MST (2/7) 2:37 PM MST (2/7)
Length of Visible Light 11h 18m
Length of Day
10h 20m
Waning Crescent, 8% of the Moon is Illuminated
Feb 7
Waning Crescent
Feb 10
New
Feb 17
First Quarter
Feb 25
Full
Mar 4
Last Quarter

Hourly Weather History & Observations

Time (MST) Temp. Windchill Dew Point Humidity Pressure Visibility Wind Dir Wind Speed Gust Speed Precip Events Conditions
12:15 AM 41.0 °F 32.8 °F 28.0 °F 60% 30.04 in 10.0 mi North 16.1 mph 23.0 mph N/A   Clear
12:35 AM 40.1 °F 31.6 °F 29.1 °F 65% 30.04 in 10.0 mi NNW 16.1 mph 23.0 mph N/A   Clear
12:55 AM 39.2 °F 30.8 °F 29.3 °F 68% 30.05 in 10.0 mi NNW 15.0 mph - N/A   Scattered Clouds
1:15 AM 38.8 °F 31.6 °F 29.8 °F 70% 30.06 in 10.0 mi NNW 11.5 mph 23.0 mph N/A   Mostly Cloudy
1:35 AM 37.6 °F 31.0 °F 30.6 °F 76% 30.06 in 10.0 mi NNW 9.2 mph - N/A   Scattered Clouds
1:55 AM 37.0 °F 29.3 °F 31.1 °F 79% 30.07 in 10.0 mi NNW 11.5 mph - N/A   Clear
2:15 AM 36.9 °F 31.4 °F 31.8 °F 82% 30.07 in 10.0 mi NNW 6.9 mph - N/A   Mostly Cloudy
2:35 AM 37.4 °F 29.8 °F 32.0 °F 81% 30.06 in 10.0 mi NNW 11.5 mph - N/A   Overcast
2:55 AM 37.9 °F 30.9 °F 33.3 °F 83% 30.07 in 10.0 mi NW 10.4 mph - N/A   Overcast
3:15 AM 37.4 °F 30.3 °F 33.1 °F 84% 30.06 in 10.0 mi NW 10.4 mph - N/A   Overcast
3:35 AM 34.9 °F 26.2 °F 32.0 °F 89% 30.06 in 10.0 mi NNW 12.7 mph - N/A   Scattered Clouds
3:55 AM 34.3 °F 24.6 °F 32.0 °F 91% 30.07 in 10.0 mi NNW 15.0 mph - N/A   Clear
4:15 AM 33.1 °F 24.4 °F 31.1 °F 92% 30.07 in 10.0 mi NW 11.5 mph - N/A   Clear
4:35 AM 32.2 °F 22.7 °F 30.6 °F 94% 30.07 in 10.0 mi NW 12.7 mph - N/A   Clear
4:55 AM 33.1 °F 23.9 °F 31.1 °F 92% 30.07 in 10.0 mi NNW 12.7 mph - N/A   Clear
5:15 AM 32.2 °F 22.7 °F 30.4 °F 93% 30.07 in 10.0 mi NW 12.7 mph - N/A   Clear
5:35 AM 32.9 °F 22.4 °F 31.1 °F 93% 30.07 in 10.0 mi NW 16.1 mph - N/A   Clear
5:55 AM 32.4 °F 23.0 °F 30.6 °F 93% 30.08 in 10.0 mi NW 12.7 mph - N/A   Clear
6:15 AM 31.6 °F 25.1 °F 29.7 °F 92% 30.08 in 10.0 mi NW 6.9 mph - N/A   Clear
6:35 AM 30.9 °F - 29.1 °F 93% 30.09 in 10.0 mi Calm Calm - N/A   Clear
6:55 AM 28.9 °F 23.9 °F 26.8 °F 92% 30.10 in 10.0 mi SW 4.6 mph - N/A   Clear
7:15 AM 30.2 °F - 28.4 °F 93% 30.11 in 10.0 mi Calm Calm - N/A   Clear
7:35 AM 31.1 °F 27.7 °F 29.1 °F 92% 30.12 in 10.0 mi SW 3.5 mph - N/A   Clear
7:55 AM 32.4 °F 26.9 °F 29.8 °F 90% 30.13 in 10.0 mi West 5.8 mph - N/A   Clear
8:15 AM 34.7 °F 25.1 °F 29.7 °F 82% 30.12 in 10.0 mi NW 15.0 mph - N/A   Clear
8:35 AM 36.5 °F 27.8 °F 30.0 °F 77% 30.13 in 10.0 mi NW 13.8 mph 18.4 mph N/A   Clear
8:55 AM 37.6 °F 27.4 °F 28.9 °F 71% 30.12 in 10.0 mi NW 19.6 mph 25.3 mph N/A   Clear
9:15 AM 39.4 °F 29.8 °F 28.0 °F 64% 30.13 in 10.0 mi NNW 19.6 mph - N/A   Clear
9:35 AM 40.5 °F 31.5 °F 27.7 °F 60% 30.13 in 10.0 mi NW 18.4 mph - N/A   Clear
9:55 AM 42.1 °F 34.2 °F 27.7 °F 57% 30.13 in 10.0 mi NW 16.1 mph - N/A   Clear
10:15 AM 44.1 °F 37.1 °F 27.1 °F 51% 30.14 in 10.0 mi NW 15.0 mph - N/A   Clear
10:35 AM 45.0 °F 38.5 °F 27.3 °F 50% 30.14 in 10.0 mi NW 13.8 mph - N/A   Clear
10:55 AM 46.9 °F - 25.2 °F 43% 30.15 in 10.0 mi NNW 12.7 mph - N/A   Clear
11:15 AM 47.8 °F - 24.6 °F 40% 30.14 in 10.0 mi NNW 12.7 mph 19.6 mph N/A   Clear
11:35 AM 48.6 °F - 23.9 °F 38% 30.13 in 10.0 mi NNW 12.7 mph 19.6 mph N/A   Clear
11:55 AM 49.8 °F - 21.9 °F 33% 30.13 in 10.0 mi NW 11.5 mph 18.4 mph N/A   Clear
12:15 PM 50.5 °F - 21.7 °F 32% 30.12 in 10.0 mi NW 13.8 mph 19.6 mph N/A   Clear
12:35 PM 50.9 °F - 17.6 °F 27% 30.12 in 10.0 mi NNW 12.7 mph 19.6 mph N/A   Clear
12:55 PM 50.2 °F - 18.0 °F 28% 30.11 in 10.0 mi NW 11.5 mph 23.0 mph N/A   Clear
1:15 PM 51.4 °F - 16.3 °F 25% 30.11 in 10.0 mi NW 11.5 mph 17.3 mph N/A   Clear
1:35 PM 51.8 °F - 15.4 °F 24% 30.10 in 10.0 mi North 12.7 mph 16.1 mph N/A   Clear
1:55 PM 51.4 °F - 13.3 °F 22% 30.10 in 10.0 mi NNW 9.2 mph - N/A   Clear
2:15 PM 51.8 °F - 13.5 °F 22% 30.10 in 10.0 mi NW 6.9 mph 10.4 mph N/A   Clear
2:35 PM 51.6 °F - 13.3 °F 22% 30.10 in 10.0 mi WNW 6.9 mph 11.5 mph N/A   Clear
2:55 PM 51.1 °F - 13.5 °F 22% 30.10 in 10.0 mi North 5.8 mph - N/A   Clear
3:15 PM 51.1 °F - 13.6 °F 23% 30.10 in 10.0 mi NNW 5.8 mph - N/A   Clear
3:35 PM 50.9 °F - 12.4 °F 21% 30.09 in 10.0 mi NNW 10.4 mph - N/A   Clear
3:55 PM 50.2 °F - 12.4 °F 22% 30.10 in 10.0 mi NW 3.5 mph - 0.01 in   Clear
4:35 PM 48.7 °F - 13.8 °F 25% 30.10 in 10.0 mi NNW 3.5 mph - N/A   Clear
4:55 PM 46.2 °F - 14.0 °F 27% 30.11 in 10.0 mi Calm Calm - N/A   Clear
5:15 PM 42.3 °F - 13.3 °F 31% 30.11 in 10.0 mi Calm Calm - N/A   Clear
5:35 PM 35.6 °F - 13.6 °F 41% 30.11 in 10.0 mi Calm Calm - N/A   Clear
5:55 PM 37.2 °F - 13.1 °F 37% 30.11 in 10.0 mi Calm Calm - N/A   Clear
6:15 PM 35.1 °F - 13.3 °F 41% 30.11 in 10.0 mi Calm Calm - N/A   Clear
6:35 PM 32.0 °F - 14.2 °F 48% 30.11 in 10.0 mi Calm Calm - N/A   Clear
6:55 PM 30.0 °F - 13.6 °F 51% 30.11 in 10.0 mi Calm Calm - N/A   Clear
7:15 PM 27.1 °F - 14.0 °F 58% 30.11 in 10.0 mi Calm Calm - N/A   Clear
7:35 PM 26.8 °F - 12.9 °F 56% 30.11 in 10.0 mi Calm Calm - N/A   Clear
7:55 PM 27.5 °F - 13.1 °F 55% 30.11 in 10.0 mi Calm Calm - N/A   Clear
8:15 PM 28.4 °F - 14.4 °F 56% 30.11 in 10.0 mi Calm Calm - N/A   Clear
8:35 PM 27.5 °F - 14.5 °F 58% 30.11 in 10.0 mi Calm Calm - N/A   Clear
8:55 PM 25.9 °F - 13.6 °F 60% 30.12 in 10.0 mi Calm Calm - N/A   Clear
9:15 PM 28.9 °F - 14.9 °F 56% 30.12 in 10.0 mi Calm Calm - N/A   Clear
9:35 PM 27.7 °F - 14.2 °F 57% 30.12 in 10.0 mi Calm Calm - N/A   Clear
9:55 PM 22.1 °F - 13.1 °F 68% 30.12 in 10.0 mi Calm Calm - N/A   Clear
10:15 PM 22.6 °F - 13.1 °F 67% 30.12 in 10.0 mi Calm Calm - N/A   Clear
10:35 PM 21.4 °F - 13.3 °F 71% 30.12 in 10.0 mi Calm Calm - N/A   Clear
10:55 PM 24.3 °F - 14.2 °F 65% 30.11 in 10.0 mi Calm Calm - N/A   Clear
11:15 PM 25.0 °F - 13.6 °F 62% 30.11 in 10.0 mi Calm Calm - N/A   Clear
11:55 PM 26.6 °F - 14.0 °F 59% 30.11 in 10.0 mi Calm Calm - N/A   Clear